Location: Byhalia Creek
(34.8270°N, 89.8040°W)
Time: 08:45:07
(UTC+00:00)

Cosmos 1908 Rocket - Pass Details

Date: 22 April 2026
Orbit: 599 x 625 km, 82.5° (Epoch: 15 May)

Event Time Altitude Azimuth Distance (km) Brightness Sun altitude
Exits shadow 02:59:31 43° 253° (WSW) 852 4.4 -26.8°
Maximum altitude 03:00:07 46° 279° (W) 812 4.4 -26.9°
Drops below altitude 10° 03:04:17 10° 354° (N) 1,953 6.7 -27.6°
Sets 03:06:34 0° 0° (N) 2,857 7.5 -27.9°
